Location: Munkebjergskolens Observatorium
(55.3864°N, 10.3987°E)
Time: 22:35:39
(UTC+01:00)

DELTA 1 DEB - Pass Details

Date: 08 December 2023
Orbit: 783 x 826 km, 98.9° (Epoch: 04 March)

Event Time Altitude Azimuth Distance (km) Brightness Sun altitude
Rises 17:26:24 0° 154° (SSE) 3,299 ? -12.6°
Reaches altitude 10° 17:28:42 10° 152° (SSE) 2,379 ? -12.9°
Maximum altitude 17:33:57 73° 69° (ENE) 852 ? -13.6°
Drops below altitude 10° 17:39:18 10° 346° (NNW) 2,424 ? -14.3°
Sets 17:41:40 0° 345° (NNW) 3,366 ? -14.6°
